Погода в Счастливом

Россия / Карачаево-Черкесская Республика     44°09′44″N   42°15′28″E
темп.,
°C
ветер,
м/с
пор.,
м/с
влажн.,
%
обл.,
%
осадки,
мм/ч
давл.,
гПа
погр.,
м
27 октября, ср
ср2700:000в34945 0.0 103181
03:00−1в34967 0.0 103174
06:00−1в379610 0.0 1030157
09:00+3в46722 0.0 1028287
12:00+9в67500 0.0 1025507
15:00+9в56490 0.0 1024501
18:00+4в23710 0.0 102527
21:00+2юв11810 0.0 102512
28 октября, чт
чт2800:00+3зюз22730 0.0 102410
03:00+3зюз22740 0.0 102511
06:00+2з22680 0.0 102412
09:00+7з23520 0.0 1024175
12:00+11сз33400 0.0 1023636
15:00+11сз33440 0.0 1022862
18:00+6ссз227913 0.0 102432
21:00+5зюз2290100 0.0 102514
29 октября, пт
пт2900:00+5зюз2291100 0.0 102542
03:00+4з2392100 0.0 102552
06:00+4зюз2289100 0.0 102536
09:00+7з237488 0.0 1026310
12:00+10сз3456100 0.0 1025987
15:00+10ссз3352100 0.0 10251085
18:00+7св2257100 0.0 102720
21:00+5в33659 0.0 102845
30 октября, сб
сб3000:00+4в22725 0.0 102935
03:00+3в34775 0.0 102959
06:00+2в34835 0.0 103065
09:00+6в511664 0.0 1029516
12:00+9в912558 0.0 10281037
15:00+10в9134961 0.0 10271120
18:00+7в8156166 0.0 1029671
21:00+6в8156333 0.0 1028633
31 октября, вс
вс3100:00+5в71562100 0.0 1028566
03:00+3в514763 0.0 1028402
06:00+2в513875 0.0 1028345
09:00+5в7127940 0.0 1028480
12:00+8в9128051 0.0 1026589
15:00+7в9138267 0.0 1025560
18:00+6в71388100 0.0 1025416
21:00+5в499383 0.0 1025224